C/2012 V2 ( LINEAR )

Japanese version
Home page
Updated on April 28, 2013

---------------------------------------------------------------------

* Profile

Discovery Date November 5, 2012
Magnitude 19.0 mag
Discoverer Lincoln Laboratory Near-Earth Asteroid Research project

* Pictures

* Orbital Elements

Epoch 2013 Aug. 16.0 TT = JDT 2456520.5
T 2013 Aug. 16.48868 TT                                 MPC
q   1.4549013            (2000.0)            P               Q
z  +0.0016336      Peri.  217.31192     -0.12440799     -0.38816599
 +/-0.0000034      Node   262.16384     +0.97455387     -0.22074551
e   0.9976232      Incl.   67.18493     -0.18646018     -0.89476175
From 851 observations 2012 Nov. 5-2013 Apr. 7, mean residual 0".5.

* Finding Charts

* Magnitudes Graph

        m1 = 9.0 + 5 log d + 10.0 log r

---------------------------------------------------------------------

The orbital elements are published on M.P.E.C. 2013-G31.
The charts are made with StellaNavigator Ver.8 (AstroArts).
The magnitudes graphs are made with Comet for Windows.

---------------------------------------------------------------------

Copyright(C) Seiichi Yoshida (comet@aerith.net). All rights reserved.